Location: ??????
(41.3164°N, 22.6615°E)
Time: 03:43:44
(UTC+00:00)

CANX-2 - Pass Details

Date: 19 August 2022
Orbit: 591 x 608 km, 97.7° (Epoch: 03 October)

Event Time Altitude Azimuth Distance (km) Brightness Sun altitude
Rises 01:21:30 0° 27° (NNE) 2,858 ? -23.4°
Reaches altitude 10° 01:24:05 10° 42° (NE) 1,953 ? -23.0°
Maximum altitude 01:27:25 22° 94° (E) 1,324 ? -22.6°
Drops below altitude 10° 01:30:45 10° 146° (SSE) 1,949 ? -22.1°
Enters shadow 01:30:52 10° 147° (SSE) 1,986 ? -22.1°
